Tracking 18840 objects as of 17-November-2017
HD Live streaming from Space Station
objects crossing your sky now

FENGYUN 1C DEB

Track FENGYUN 1C DEB now!
10-day predictions


NORAD ID: 31891
Int'l Code: 1999-025CKS
Perigee: 859.5 km
Apogee: 1,199.6 km
Inclination: 99.7 °
Period: 105.6 minutes
Semi major axis: 7400 km
RCS: 0.0056 m2 (small)
Launch date: May 10, 1999
Source: People's Republic of China (PRC)
Launch site: Taiyaun Space Center, China (TSC)

Note: This is SATELLITE DEBRIS
aabbcc
Your satellite tracking list
Your tracking list is empty




NASA's NSSDC Master Catalog

Two Line Element Set (TLE):
1 31891U 99025CKS 17320.85147806  .00000162  00000-0  21844-3 0  9990
2 31891  99.6889 346.1822 0229761 171.9780 188.5137 13.63671186522216
Source of the keplerian elements: AFSPC